Ponca City, OK

9:45 AM CDT on March 26, 2017 (GMT -0500)
Ponca City Municipal

Weather History for KPNC - January, 2013

Change the Weather History Date:

Monday, January 7, 2013

  Actual Average Record
Temperature  
Mean Temperature 41 °F -  
Max Temperature 52 °F 36 °F 73 °F (2006)
Min Temperature 30 °F 14 °F -1 °F (1968)
Degree Days  
Heating Degree Days 24    
Moisture  
Dew Point 22 °F    
Average Humidity 50    
Maximum Humidity 66    
Minimum Humidity 30    
Precipitation  
Precipitation 0.00 in - - ()
Sea Level Pressure  
Sea Level Pressure 30.19 in    
Wind  
Wind Speed 8 mph (South)    
Max Wind Speed 13 mph    
Max Gust Speed 21 mph    
Visibility 10 miles    
Events      
Averages and records for this station are not official NWS values.
T = Trace of Precipitation, MM = Missing Value Source: NWS Daily Summary

Daily Weather History Graph

Daily Weather History Graph

Search for Another Location

Airport or City:

Trip Planner

Search our weather history database for the weather conditions in past years. The results will help you decide how hot, cold, wet, or windy it might be!

Date:

Astronomy

Jan. 07, 2013 Rise Set
Actual Time 7:41 AM CST 5:28 PM CST
Civil Twilight 7:12 AM CST 5:57 PM CST
Nautical Twilight 6:40 AM CST 6:29 PM CST
Astronomical Twilight 6:09 AM CST 7:00 PM CST
Moon 3:08 AM CST (1/7) 1:39 PM CST (1/7)
Length of Visible Light 10h 44m
Length of Day
9h 47m
Waning Crescent, 22% of the Moon is Illuminated
Jan 7
Waning Crescent
Jan 11
New
Jan 18
First Quarter
Jan 26
Full
Feb 3
Last Quarter

Hourly Weather History & Observations

Time (CST) Temp. Windchill Dew Point Humidity Pressure Visibility Wind Dir Wind Speed Gust Speed Precip Events Conditions
12:53 AM 32.0 °F 24.8 °F 19.0 °F 59% 30.31 in 10.0 mi SSE 8.1 mph - N/A   Clear
1:53 AM 33.1 °F 30.0 °F 19.9 °F 59% 30.29 in 10.0 mi South 3.5 mph - N/A   Clear
2:53 AM 34.0 °F 28.0 °F 21.0 °F 59% 30.29 in 10.0 mi South 6.9 mph - N/A   Clear
3:53 AM 33.1 °F 28.7 °F 19.9 °F 59% 30.27 in 10.0 mi South 4.6 mph - N/A   Clear
4:53 AM 32.0 °F 27.5 °F 19.0 °F 59% 30.27 in 10.0 mi South 4.6 mph - N/A   Clear
5:53 AM 30.0 °F 24.1 °F 19.0 °F 64% 30.26 in 10.0 mi South 5.8 mph - N/A   Clear
6:53 AM 30.0 °F 21.7 °F 19.9 °F 66% 30.25 in 10.0 mi SSE 9.2 mph - N/A   Clear
7:53 AM 30.0 °F 21.7 °F 19.9 °F 66% 30.27 in 10.0 mi SSE 9.2 mph - N/A   Clear
8:53 AM 36.0 °F 29.6 °F 19.9 °F 52% 30.27 in 10.0 mi South 8.1 mph 16.1 mph N/A   Clear
9:53 AM 37.0 °F 30.4 °F 21.0 °F 52% 30.27 in 10.0 mi South 9.2 mph - N/A   Clear
10:53 AM 41.0 °F 35.8 °F 21.9 °F 47% 30.26 in 10.0 mi South 8.1 mph - N/A   Clear
11:53 AM 46.0 °F 41.4 °F 21.9 °F 39% 30.22 in 10.0 mi South 9.2 mph - N/A   Clear
12:53 PM 51.8 °F - 21.2 °F 30% 30.16 in 10.0 mi SSW 12.7 mph 20.7 mph N/A   Clear
1:53 PM 52.0 °F - 21.9 °F 31% 30.13 in 10.0 mi South 9.2 mph 20.7 mph N/A   Clear
2:53 PM 52.0 °F - 21.9 °F 31% 30.12 in 10.0 mi SSW 6.9 mph - N/A   Clear
3:53 PM 52.0 °F - 21.9 °F 31% 30.12 in 10.0 mi SSW 8.1 mph - N/A   Clear
4:53 PM 50.0 °F - 21.2 °F 32% 30.11 in 10.0 mi SSW 9.2 mph - N/A   Clear
5:53 PM 48.0 °F - 21.9 °F 36% 30.11 in 10.0 mi South 6.9 mph - N/A   Clear
6:53 PM 45.0 °F 41.2 °F 21.9 °F 40% 30.10 in 10.0 mi South 6.9 mph - N/A   Clear
7:53 PM 43.0 °F 37.2 °F 25.0 °F 49% 30.10 in 10.0 mi SSE 10.4 mph - N/A   Clear
8:53 PM 42.1 °F 36.6 °F 26.1 °F 53% 30.09 in 10.0 mi South 9.2 mph - N/A   Clear
9:53 PM 43.0 °F 37.2 °F 27.0 °F 53% 30.08 in 10.0 mi South 10.4 mph 16.1 mph N/A   Clear
10:53 PM 42.1 °F 36.1 °F 28.0 °F 58% 30.08 in 10.0 mi South 10.4 mph 17.3 mph N/A   Clear
11:53 PM 39.9 °F 35.1 °F 28.9 °F 65% 30.07 in 10.0 mi South 6.9 mph - N/A   Clear